EW1802 Weather Reports


time (UTC)temp
F
wind
direction
speed
knots
gust
knots
rain 1hr
in
rain 24hr
in
rain mn
in
humidity
%
barometer
mb
20260510065704 53 228 0.0 0.0 0.01 0.73 0.18 99 1007.1
20260510065203 53 228 0.0 0.0 0.01 0.73 0.18 99 1007.1
20260510064704 53 228 0.0 0.0 0.01 0.73 0.18 99 1007.1
20260510064204 53 228 0.0 0.0 0.01 0.73 0.18 99 1007.2
20260510063703 53 228 0.0 0.0 0.01 0.73 0.18 99 1007.1
20260510063204 54 228 0.0 0.0 0.01 0.73 0.18 99 1007.1
20260510062704 54 228 0.0 0.0 0.01 0.73 0.18 99 1007.4
20260510062203 54 228 0.0 0.0 0.01 0.73 0.18 99 1007.5
20260510061703 54 225 0.0 0.0 0.01 0.73 0.18 99 1007.6
20260510060705 53 229 0.0 2.6 0.01 0.73 0.18 99 1007.5
20260510060204 52 229 0.0 0.0 0.00 0.72 0.17 99 1008.3
20260510055703 52 219 0.0 0.0 0.00 0.72 0.17 99 1008.1
20260510055203 52 218 0.0 0.0 0.00 0.72 0.17 98 1007.7
20260510054704 53 218 0.0 0.0 0.00 0.72 0.17 98 1007.6
20260510054204 53 218 0.0 0.0 0.04 0.72 0.17 98 1007.6
20260510053703 53 219 0.0 0.0 0.10 0.72 0.17 99 1007.7
20260510051704 54 218 0.0 0.0 0.11 0.72 0.17 98 1007.7
20260510051203 54 218 0.0 0.0 0.12 0.72 0.17 98 1007.6
20260510050704 54 218 0.0 0.0 0.14 0.72 0.17 98 1007.6
20260510045703 55 218 0.0 0.0 0.18 0.72 0.17 98 1007.4
20260510045203 55 207 0.0 0.0 0.18 0.72 0.17 98 1007.4
20260510044704 55 205 0.0 0.0 0.19 0.73 0.17 98 1007.2
20260510044204 55 97 0.0 0.0 0.15 0.69 0.13 98 1008.1
20260510043703 55 214 0.0 0.0 0.09 0.63 0.07 98 1008.4
20260510042704 55 211 0.0 0.0 0.08 0.62 0.06 98 1007.9
20260510042204 55 202 0.0 0.0 0.08 0.62 0.06 98 1007.9
20260510041204 55 201 0.0 0.0 0.07 0.61 0.05 98 1008.0
20260510040703 55 257 0.0 0.0 0.05 0.59 0.03 98 1008.1
20260510040204 55 257 0.0 0.0 0.03 0.57 0.01 98 1007.9
20260510035703 55 257 0.0 0.0 0.02 0.56 0.56 98 1007.7
20260510034704 55 265 0.0 0.0 0.00 0.54 0.54 98 1007.6
20260510034203 54 263 0.0 0.0 0.00 0.54 0.54 98 1007.5
20260510033703 54 253 0.0 0.0 0.00 0.54 0.54 98 1007.4
20260510033203 54 235 0.0 0.0 0.00 0.54 0.54 98 1007.1
20260510032704 54 217 0.0 0.0 0.00 0.54 0.54 98 1006.9
20260510032203 54 235 0.0 0.0 0.00 0.55 0.54 97 1006.9
20260510031704 54 193 0.0 0.0 0.00 0.55 0.54 97 1006.9
20260510030705 54 249 0.0 0.0 0.01 0.55 0.54 97 1007.0
20260510025704 55 250 0.0 0.0 0.04 0.55 0.54 97 1007.1
20260510025204 55 263 0.0 0.0 0.06 0.56 0.54 97 1007.2
20260510024704 55 263 0.0 0.0 0.09 0.56 0.54 97 1007.3
20260510024205 55 263 0.0 0.0 0.11 0.56 0.54 96 1007.3
20260510023703 55 253 0.0 0.0 0.13 0.56 0.54 96 1007.3
20260510023203 55 210 0.0 0.0 0.15 0.56 0.54 96 1007.4
20260510022704 55 210 0.0 0.0 0.18 0.57 0.54 96 1007.4
20260510022204 55 210 0.0 0.0 0.31 0.57 0.54 95 1007.4
20260510021704 55 210 0.0 0.0 0.43 0.57 0.54 95 1007.4
20260510020204 55 210 0.0 0.0 0.41 0.55 0.52 94 1007.8
20260510015703 55 210 0.0 0.0 0.39 0.54 0.50 93 1008.1
20260510015204 56 210 0.0 0.0 0.37 0.52 0.48 92 1008.1
20260510014704 56 210 0.0 0.0 0.34 0.49 0.45 91 1007.8
20260510013704 57 173 0.0 0.0 0.30 0.45 0.41 88 1007.7
20260510012704 58 117 0.0 0.9 0.25 0.41 0.36 83 1007.3
20260510012204 60 208 0.0 0.0 0.12 0.28 0.23 80 1007.3
20260510011704 61 215 0.0 0.0 0.00 0.16 0.11 76 1007.2
20260510011204 62 249 0.0 0.0 0.00 0.16 0.11 72 1006.6
20260510010704 63 297 0.0 0.0 0.00 0.16 0.11 67 1005.8
20260510010204 62 280 0.0 0.0 0.00 0.16 0.11 67 1005.1
20260510005703 62 212 0.0 0.0 0.00 0.16 0.11 67 1005.0
20260510005203 62 191 0.0 0.0 0.00 0.16 0.11 67 1004.9
20260510004204 63 193 0.0 0.0 0.00 0.16 0.11 66 1005.0
20260510003204 63 216 0.0 0.0 0.00 0.16 0.11 65 1005.0
20260510002703 63 260 0.0 0.0 0.00 0.17 0.11 64 1004.9
20260510002204 63 230 0.0 0.0 0.00 0.17 0.11 64 1004.9
20260510001704 64 203 0.0 0.0 0.00 0.17 0.11 64 1004.8
20260510001204 64 214 0.0 0.0 0.00 0.17 0.11 63 1004.7
20260510000704 64 272 0.0 0.0 0.00 0.17 0.11 63 1004.6
20260510000204 64 240 0.0 0.0 0.00 0.17 0.11 63 1004.6
20260509235704 64 215 0.0 0.0 0.00 0.17 0.11 62 1004.6
20260509235204 65 259 0.0 0.0 0.00 0.17 0.11 62 1004.5
20260509234704 65 241 0.0 1.7 0.00 0.17 0.11 61 1004.5
20260509234204 65 281 0.9 2.6 0.00 0.17 0.11 61 1004.4
20260509233703 65 283 0.0 0.9 0.00 0.17 0.11 61 1004.4
20260509233204 65 276 0.0 0.9 0.00 0.17 0.11 61 1004.3
20260509232204 66 232 0.0 2.6 0.00 0.17 0.11 60 1004.3
20260509231704 66 190 0.0 0.0 0.00 0.17 0.11 60 1004.2
20260509225704 67 214 0.0 0.0 0.00 0.17 0.11 57 1004.3
20260509224703 69 259 0.0 0.0 0.00 0.17 0.11 56 1004.4
20260509224203 69 183 0.0 0.9 0.00 0.17 0.11 55 1004.4
20260509223703 69 277 0.0 1.7 0.00 0.17 0.11 55 1004.3
20260509223203 69 197 0.0 1.7 0.00 0.17 0.11 54 1004.3
20260509222704 69 227 0.0 2.6 0.00 0.17 0.11 54 1004.3
20260509222204 69 253 0.0 5.2 0.00 0.17 0.11 54 1004.3
20260509221704 69 256 0.0 0.9 0.00 0.17 0.11 56 1004.3
20260509220704 69 246 0.9 5.2 0.00 0.17 0.11 56 1004.3
20260509220204 69 284 0.0 2.6 0.00 0.17 0.11 55 1004.4
20260509215703 68 260 0.9 5.2 0.00 0.17 0.11 56 1004.5
20260509215203 68 185 0.9 4.3 0.00 0.17 0.11 55 1004.4
20260509214704 69 199 0.9 6.1 0.00 0.17 0.11 55 1004.5
20260509214204 69 227 0.0 2.6 0.00 0.17 0.11 56 1004.6
20260509213704 69 198 0.9 2.6 0.00 0.17 0.11 56 1004.6
20260509213204 68 222 0.9 2.6 0.00 0.17 0.11 55 1004.5
20260509212203 68 169 1.7 10.4 0.00 0.17 0.11 55 1004.5
20260509211704 68 187 0.9 4.3 0.00 0.17 0.11 57 1004.6
20260509211204 68 193 0.9 2.6 0.00 0.17 0.11 57 1004.6
20260509210203 68 263 0.0 1.7 0.00 0.17 0.11 57 1004.7
20260509205703 68 197 0.9 8.7 0.00 0.17 0.11 57 1004.6
20260509205204 68 275 0.9 7.0 0.00 0.17 0.11 57 1004.6
20260509204704 68 173 0.9 4.3 0.00 0.17 0.11 57 1004.8
20260509204204 68 211 0.0 2.6 0.00 0.17 0.11 58 1004.9
20260509203703 68 234 0.0 0.9 0.00 0.17 0.11 60 1004.9
20260509202704 67 269 0.0 0.9 0.00 0.17 0.11 59 1005.2
20260509202204 67 263 0.0 2.6 0.00 0.17 0.11 59 1005.3
20260509201704 67 273 0.0 4.3 0.00 0.17 0.11 59 1005.4
20260509201205 67 255 0.0 5.2 0.00 0.17 0.11 57 1005.5
20260509200703 67 284 0.0 1.7 0.00 0.17 0.11 59 1005.5
20260509200203 67 211 0.0 0.0 0.00 0.17 0.11 61 1005.5
20260509195704 67 205 0.0 1.7 0.00 0.17 0.11 60 1005.5
20260509195204 68 294 0.9 2.6 0.00 0.17 0.11 58 1005.6
20260509194204 67 254 0.0 0.9 0.00 0.17 0.11 60 1005.8
20260509193704 68 276 0.0 2.6 0.00 0.17 0.11 60 1005.9
20260509193203 68 267 0.0 4.3 0.00 0.17 0.11 62 1006.0
20260509192703 68 279 0.0 0.9 0.00 0.17 0.11 63 1006.1
20260509192204 67 248 0.0 1.7 0.00 0.17 0.11 60 1006.2
20260509191704 67 239 0.0 0.9 0.00 0.17 0.11 61 1006.1
20260509190703 68 147 0.0 2.6 0.00 0.18 0.11 62 1006.0
20260509190203 68 291 0.0 0.0 0.00 0.18 0.11 65 1006.1
20260509185704 67 197 0.0 1.7 0.00 0.19 0.11 65 1006.2
20260509185204 67 292 0.0 0.0 0.00 0.19 0.11 65 1006.3
20260509184704 67 288 0.0 4.3 0.00 0.19 0.11 65 1006.3
20260509184204 67 181 0.0 4.3 0.00 0.19 0.11 67 1006.3
20260509183704 66 288 0.0 0.0 0.00 0.19 0.11 70 1006.3
20260509183204 66 225 0.0 2.6 0.00 0.19 0.11 71 1006.4
20260509182705 65 283 0.0 2.6 0.00 0.19 0.11 68 1006.4
20260509182203 65 274 0.0 0.9 0.00 0.19 0.11 71 1006.4
20260509181203 65 296 0.0 0.9 0.00 0.19 0.11 68 1006.6
20260509180703 65 222 0.0 0.0 0.00 0.19 0.11 72 1006.6
20260509180204 64 235 0.0 1.7 0.00 0.19 0.11 73 1006.7
20260509175704 63 219 0.0 0.0 0.00 0.19 0.11 75 1006.7
20260509175204 63 242 0.0 2.6 0.00 0.19 0.11 72 1006.8
20260509174704 63 246 0.0 2.6 0.00 0.19 0.11 72 1006.8
20260509174204 64 299 0.0 0.0 0.00 0.19 0.11 74 1006.7
20260509173703 63 232 0.0 0.0 0.00 0.19 0.11 73 1006.8
20260509173204 63 221 0.9 8.7 0.00 0.19 0.11 75 1006.9
20260509172703 62 279 0.0 0.9 0.00 0.19 0.11 77 1006.8
20260509172203 61 214 0.9 2.6 0.00 0.19 0.11 79 1006.7
20260509171704 61 177 0.0 0.9 0.00 0.19 0.11 80 1006.8
20260509171204 61 280 0.0 0.9 0.00 0.19 0.11 80 1006.8
20260509170704 61 265 0.0 0.0 0.00 0.19 0.11 81 1006.8
20260509165704 60 288 0.0 0.9 0.00 0.19 0.11 80 1006.7
20260509164704 60 237 0.0 0.0 0.00 0.19 0.11 81 1006.7
20260509163704 61 239 0.0 0.0 0.00 0.19 0.11 81 1006.7
20260509163204 60 194 0.0 0.0 0.00 0.19 0.11 87 1006.7
20260509162704 60 230 0.0 0.0 0.00 0.19 0.11 84 1006.6
20260509162203 59 196 0.0 0.0 0.00 0.19 0.11 87 1006.7
20260509161703 59 260 0.0 0.0 0.00 0.19 0.11 88 1006.6
20260509161204 58 219 0.0 0.0 0.00 0.19 0.11 90 1006.6
20260509155205 57 265 0.0 0.0 0.00 0.19 0.11 92 1006.5
20260509154704 57 276 0.0 0.0 0.00 0.19 0.11 92 1006.4
20260509153204 56 269 0.0 0.0 0.01 0.19 0.11 98 1006.3
20260509152704 56 206 0.0 0.0 0.01 0.19 0.11 97 1006.4
20260509152204 55 260 0.0 0.0 0.01 0.19 0.11 98 1006.4
20260509151203 55 188 0.0 0.0 0.03 0.19 0.11 98 1006.4
20260509150704 55 271 0.0 0.0 0.03 0.19 0.11 99 1006.4
20260509150204 54 159 0.0 0.0 0.04 0.19 0.11 99 1006.5
20260509145704 54 216 0.0 0.0 0.04 0.19 0.11 99 1006.4
20260509145204 54 224 0.0 0.0 0.04 0.19 0.11 99 1006.5
20260509144704 53 194 0.0 0.0 0.05 0.19 0.11 99 1006.5
20260509144203 53 229 0.0 0.0 0.05 0.19 0.11 99 1006.5
20260509143704 52 195 0.0 0.0 0.04 0.18 0.10 99 1006.5
20260509143204 52 215 0.0 0.0 0.04 0.18 0.10 99 1006.5
20260509142704 52 206 0.0 0.0 0.04 0.18 0.10 99 1006.6
20260509142204 52 190 0.0 0.0 0.04 0.18 0.10 99 1006.7
20260509141203 52 254 0.0 0.0 0.02 0.16 0.08 99 1006.9
20260509140703 52 209 0.0 0.0 0.02 0.16 0.08 99 1006.8
20260509140204 52 222 0.0 0.0 0.01 0.15 0.07 99 1006.8
20260509135704 52 203 0.0 0.0 0.01 0.15 0.07 99 1006.7
20260509135204 51 202 0.0 0.9 0.02 0.15 0.07 99 1006.7
20260509134704 51 200 0.0 0.0 0.01 0.14 0.06 99 1006.7
20260509134204 51 218 0.0 0.0 0.01 0.14 0.06 99 1006.8
20260509133703 51 197 0.0 0.0 0.01 0.14 0.06 99 1006.9
20260509133204 51 197 0.0 0.0 0.01 0.14 0.06 99 1006.9
20260509132704 51 196 0.0 0.0 0.01 0.14 0.06 99 1006.9
20260509132204 51 196 0.0 0.0 0.01 0.14 0.06 99 1006.9
20260509131704 51 194 0.0 0.0 0.01 0.14 0.06 99 1006.9
20260509131204 51 227 0.0 0.0 0.01 0.14 0.06 99 1006.9
20260509130704 51 199 0.0 0.0 0.02 0.14 0.06 99 1006.9
20260509130204 51 195 0.0 0.0 0.02 0.14 0.06 99 1006.9
20260509125704 51 179 0.0 0.0 0.02 0.14 0.06 99 1006.8
20260509125204 51 198 0.0 0.0 0.01 0.13 0.05 99 1006.9
20260509124703 51 198 0.0 0.0 0.01 0.13 0.05 99 1006.9
20260509124204 51 201 0.0 0.0 0.01 0.13 0.05 99 1007.0
20260509123704 51 233 0.0 0.0 0.01 0.13 0.05 99 1007.1
20260509123204 51 245 0.0 0.0 0.01 0.13 0.05 99 1007.1
20260509122704 51 224 0.0 0.0 0.01 0.13 0.05 99 1007.1
20260509122204 50 227 0.0 0.0 0.01 0.13 0.05 99 1007.1
20260509121704 50 242 0.0 0.0 0.01 0.13 0.05 99 1007.1
20260509121204 50 195 0.0 0.0 0.01 0.13 0.05 99 1007.1
20260509120704 50 219 0.0 0.0 0.00 0.12 0.04 99 1007.2
20260509120203 50 235 0.0 0.0 0.00 0.12 0.04 99 1007.2
20260509115703 50 226 0.0 0.0 0.00 0.12 0.04 99 1007.1
20260509115204 50 191 0.0 0.0 0.00 0.12 0.04 99 1007.1
20260509114704 50 186 0.0 0.0 0.00 0.12 0.04 99 1007.1
20260509114203 50 205 0.0 0.0 0.00 0.12 0.04 99 1007.0
20260509113703 50 279 0.0 0.0 0.00 0.12 0.04 99 1006.9
20260509113204 50 196 0.0 0.0 0.01 0.12 0.04 99 1006.9
20260509112704 50 196 0.0 0.0 0.01 0.12 0.04 99 1006.9
20260509112204 49 196 0.0 0.0 0.01 0.12 0.04 99 1006.8
20260509111703 49 214 0.0 0.0 0.01 0.12 0.04 99 1006.9
20260509110704 49 214 0.0 0.0 0.01 0.12 0.04 99 1006.9
20260509110204 49 208 0.0 0.0 0.01 0.12 0.04 99 1006.8
20260509105703 49 208 0.0 0.0 0.01 0.12 0.04 99 1006.9
20260509105203 49 187 0.0 0.0 0.01 0.12 0.04 99 1006.9
20260509104703 49 214 0.0 0.0 0.01 0.12 0.04 99 1006.8
20260509104203 49 218 0.0 0.0 0.01 0.12 0.04 99 1006.7
20260509103704 49 218 0.0 0.0 0.01 0.12 0.04 99 1006.7
20260509103204 49 218 0.0 0.0 0.00 0.11 0.03 99 1006.8
20260509102703 49 217 0.0 0.0 0.00 0.11 0.03 99 1007.0
20260509102204 49 218 0.0 0.0 0.00 0.11 0.03 99 1006.9
20260509101703 49 217 0.0 0.0 0.00 0.11 0.03 99 1006.9
20260509101204 49 180 0.0 0.0 0.00 0.11 0.03 99 1006.8
20260509100704 49 180 0.0 0.0 0.00 0.11 0.03 99 1006.8
20260509100203 49 176 0.0 0.0 0.00 0.11 0.03 99 1006.9
20260509095703 49 84 0.0 0.0 0.00 0.11 0.03 99 1006.9
20260509095203 49 85 0.0 0.0 0.00 0.11 0.03 99 1006.9
20260509094704 49 84 0.0 0.0 0.00 0.11 0.03 99 1006.9
20260509094204 49 84 0.0 0.0 0.00 0.11 0.03 99 1007.0
20260509093703 49 84 0.0 0.0 0.00 0.11 0.03 99 1007.0
20260509093203 49 84 0.0 0.0 0.00 0.11 0.03 99 1007.1
20260509092704 49 85 0.0 0.0 0.00 0.11 0.03 99 1007.1
20260509092205 49 85 0.0 0.0 0.00 0.11 0.03 99 1007.1
20260509091704 49 85 0.0 0.0 0.00 0.11 0.03 99 1007.1
20260509091203 49 84 0.0 0.0 0.00 0.11 0.03 99 1007.3
20260509090703 49 84 0.0 0.0 0.01 0.11 0.03 99 1007.4
20260509090204 49 84 0.0 0.0 0.01 0.11 0.03 99 1007.4
20260509085704 49 84 0.0 0.0 0.01 0.11 0.03 99 1007.5
20260509085204 49 85 0.0 0.0 0.01 0.11 0.03 99 1007.5
20260509084703 49 85 0.0 0.0 0.01 0.11 0.03 99 1007.5
20260509084204 49 84 0.0 0.0 0.02 0.11 0.03 99 1007.6
20260509083704 49 85 0.0 0.0 0.02 0.11 0.03 99 1007.5
20260509083204 49 84 0.0 0.0 0.02 0.11 0.03 99 1007.5
20260509082203 49 84 0.0 0.0 0.02 0.11 0.03 99 1007.8
20260509081704 48 83 0.0 0.0 0.02 0.11 0.03 99 1007.8
20260509081204 48 84 0.0 0.0 0.02 0.11 0.03 99 1008.0
20260509080703 48 83 0.0 0.0 0.01 0.10 0.02 99 1007.9
20260509075704 48 83 0.0 0.0 0.01 0.10 0.02 99 1008.0
20260509075204 48 83 0.0 0.0 0.01 0.10 0.02 99 1008.1
20260509074704 48 83 0.0 0.0 0.01 0.10 0.02 99 1008.1
20260509074203 48 83 0.0 0.0 0.00 0.09 0.01 99 1008.1
20260509073704 48 83 0.0 0.0 0.00 0.09 0.01 99 1008.1
20260509073204 48 83 0.0 0.0 0.00 0.09 0.01 99 1008.1
20260509072703 48 83 0.0 0.0 0.00 0.09 0.01 99 1008.1
20260509072204 48 83 0.0 0.0 0.00 0.09 0.01 99 1007.9
20260509071204 48 84 0.0 0.0 0.00 0.09 0.01 99 1007.9
20260509070704 48 83 0.0 0.0 0.00 0.09 0.01 99 1008.0
20260509070203 48 84 0.0 0.0 0.00 0.09 0.01 99 1008.0